Time,TemperatureF,DewpointF,PressureIn,WindDirection,WindDirectionDegrees,WindSpeedMPH,WindSpeedGustMPH,Humidity,HourlyPrecipIn,Conditions,Clouds,dailyrainin,SoftwareType,DateUTC
2013-06-17 00:01:00,56.5,48.2,30.02,ENE,68,0.4,1.1,74,0.00,,,0.00,WUHU216HW,2013-06-17 07:01:00,
2013-06-17 00:06:00,56.3,48.2,30.02,ENE,68,0.4,1.1,74,0.00,,,0.00,WUHU216HW,2013-06-17 07:06:00,
2013-06-17 00:11:00,56.2,48.0,30.02,ENE,68,0.7,1.6,74,0.00,,,0.00,WUHU216HW,2013-06-17 07:11:00,
2013-06-17 00:16:00,56.0,47.8,30.02,East,90,0.0,1.6,74,0.00,,,0.00,WUHU216HW,2013-06-17 07:16:00,
2013-06-17 00:21:00,55.8,48.0,30.02,East,90,0.9,1.1,75,0.00,,,0.00,WUHU216HW,2013-06-17 07:21:00,
2013-06-17 00:26:00,55.8,48.3,30.02,East,90,0.2,1.3,76,0.00,,,0.00,WUHU216HW,2013-06-17 07:26:00,
2013-06-17 00:31:00,55.6,48.2,30.02,NNE,23,0.4,1.3,76,0.00,,,0.00,WUHU216HW,2013-06-17 07:31:00,
2013-06-17 00:36:00,55.4,48.0,30.02,NE,45,0.9,1.1,76,0.00,,,0.00,WUHU216HW,2013-06-17 07:36:00,
2013-06-17 00:41:00,55.3,47.8,30.02,East,90,0.7,1.1,76,0.00,,,0.00,WUHU216HW,2013-06-17 07:41:00,
2013-06-17 00:46:00,55.3,48.2,30.02,ENE,68,1.1,2.2,77,0.00,,,0.00,WUHU216HW,2013-06-17 07:46:00,
2013-06-17 00:51:00,55.1,48.0,30.02,NE,45,1.1,2.2,77,0.00,,,0.00,WUHU216HW,2013-06-17 07:51:00,
2013-06-17 00:56:00,55.1,48.0,30.02,East,90,1.8,1.8,77,0.00,,,0.00,WUHU216HW,2013-06-17 07:56:00,
2013-06-17 01:01:00,54.9,47.8,30.02,NE,45,0.4,1.8,77,0.00,,,0.00,WUHU216HW,2013-06-17 08:01:00,
2013-06-17 01:06:00,54.7,47.6,30.02,ENE,68,0.0,1.3,77,0.00,,,0.00,WUHU216HW,2013-06-17 08:06:00,
2013-06-17 01:11:00,54.5,47.4,30.02,East,90,0.0,1.1,77,0.00,,,0.00,WUHU216HW,2013-06-17 08:11:00,
2013-06-17 01:16:00,54.5,48.2,30.01,NE,45,1.6,2.2,79,0.00,,,0.00,WUHU216HW,2013-06-17 08:16:00,
2013-06-17 01:21:00,54.4,47.6,30.01,NE,45,1.6,2.2,78,0.00,,,0.00,WUHU216HW,2013-06-17 08:21:00,
2013-06-17 01:26:00,54.4,47.6,30.01,East,90,0.9,1.6,78,0.00,,,0.00,WUHU216HW,2013-06-17 08:26:00,
2013-06-17 01:31:00,54.4,48.0,30.01,East,90,0.9,2.5,79,0.00,,,0.00,WUHU216HW,2013-06-17 08:31:00,
2013-06-17 01:36:00,54.5,48.2,30.01,East,90,1.6,2.5,79,0.00,,,0.00,WUHU216HW,2013-06-17 08:36:00,
2013-06-17 01:41:00,54.5,48.2,30.01,East,90,2.5,2.9,79,0.00,,,0.00,WUHU216HW,2013-06-17 08:41:00,
2013-06-17 01:46:00,54.5,48.2,30.01,NE,45,1.8,2.9,79,0.00,,,0.00,WUHU216HW,2013-06-17 08:46:00,
2013-06-17 01:51:00,54.4,48.3,30.01,NNW,338,0.0,2.0,80,0.00,,,0.00,WUHU216HW,2013-06-17 08:51:00,
2013-06-17 01:56:00,54.4,48.0,30.01,NNE,23,2.2,2.5,79,0.00,,,0.00,WUHU216HW,2013-06-17 08:56:00,
2013-06-17 02:01:00,54.4,48.0,30.01,East,90,2.0,2.5,79,0.00,,,0.00,WUHU216HW,2013-06-17 09:01:00,
2013-06-17 02:06:00,54.4,48.0,30.01,NNE,23,1.1,2.0,79,0.00,,,0.00,WUHU216HW,2013-06-17 09:06:00,
2013-06-17 02:11:00,54.2,47.8,30.01,NE,45,0.9,1.3,79,0.00,,,0.00,WUHU216HW,2013-06-17 09:11:00,
2013-06-17 02:16:00,54.2,48.2,30.01,ENE,68,1.1,1.6,80,0.00,,,0.00,WUHU216HW,2013-06-17 09:16:00,
2013-06-17 02:21:00,54.0,48.1,30.01,ENE,68,1.1,1.6,80,0.00,,,0.00,WUHU216HW,2013-06-17 09:21:00,
2013-06-17 02:26:00,54.0,48.1,30.01,East,90,1.1,1.8,80,0.00,,,0.00,WUHU216HW,2013-06-17 09:26:00,
2013-06-17 02:31:00,53.8,47.9,30.01,ENE,68,0.4,1.8,80,0.00,,,0.00,WUHU216HW,2013-06-17 09:31:00,
2013-06-17 02:36:00,53.8,47.9,30.01,East,90,0.9,1.6,80,0.00,,,0.00,WUHU216HW,2013-06-17 09:36:00,
2013-06-17 02:41:00,53.6,47.7,30.01,ENE,68,0.4,1.1,80,0.00,,,0.00,WUHU216HW,2013-06-17 09:41:00,
2013-06-17 02:46:00,53.6,47.7,30.01,NNE,23,0.2,1.1,80,0.00,,,0.00,WUHU216HW,2013-06-17 09:46:00,
2013-06-17 02:51:00,53.5,47.5,30.01,NNE,23,0.4,1.1,80,0.00,,,0.00,WUHU216HW,2013-06-17 09:51:00,
2013-06-17 02:56:00,53.5,47.8,30.00,ENE,68,0.4,1.8,81,0.00,,,0.00,WUHU216HW,2013-06-17 09:56:00,
2013-06-17 03:01:00,53.3,47.6,30.00,ENE,68,0.7,1.8,81,0.00,,,0.00,WUHU216HW,2013-06-17 10:01:00,
2013-06-17 03:06:00,53.3,47.6,30.00,ESE,113,0.9,1.8,81,0.00,,,0.00,WUHU216HW,2013-06-17 10:06:00,
2013-06-17 03:11:00,53.3,48.0,30.00,East,90,0.9,1.6,82,0.00,,,0.00,WUHU216HW,2013-06-17 10:11:00,
2013-06-17 03:16:00,53.3,48.0,30.00,ENE,68,1.1,1.6,82,0.00,,,0.00,WUHU216HW,2013-06-17 10:16:00,
2013-06-17 03:21:00,53.1,47.8,30.00,NE,45,0.4,1.6,82,0.00,,,0.00,WUHU216HW,2013-06-17 10:21:00,
2013-06-17 03:26:00,52.9,47.6,30.00,NE,45,0.7,1.1,82,0.00,,,0.00,WUHU216HW,2013-06-17 10:26:00,
2013-06-17 03:31:00,52.9,47.6,30.00,ENE,68,0.7,2.0,82,0.00,,,0.00,WUHU216HW,2013-06-17 10:31:00,
2013-06-17 03:36:00,52.7,47.4,30.00,ENE,68,1.6,2.0,82,0.00,,,0.00,WUHU216HW,2013-06-17 10:36:00,
2013-06-17 03:41:00,52.7,47.4,30.00,NE,45,0.9,1.6,82,0.00,,,0.00,WUHU216HW,2013-06-17 10:41:00,
2013-06-17 03:46:00,52.6,47.3,30.00,ENE,68,0.4,1.3,82,0.00,,,0.00,WUHU216HW,2013-06-17 10:46:00,
2013-06-17 03:51:00,52.6,47.3,30.00,NE,45,0.0,1.1,82,0.00,,,0.00,WUHU216HW,2013-06-17 10:51:00,
2013-06-17 03:56:00,52.4,47.1,30.00,ENE,68,0.7,1.1,82,0.00,,,0.00,WUHU216HW,2013-06-17 10:56:00,
2013-06-17 04:01:00,52.4,47.3,30.00,ENE,68,0.9,1.1,83,0.00,,,0.00,WUHU216HW,2013-06-17 11:01:00,
2013-06-17 04:06:00,52.2,46.9,30.00,East,90,0.2,1.1,82,0.00,,,0.00,WUHU216HW,2013-06-17 11:06:00,
2013-06-17 04:11:00,52.2,47.5,30.00,ESE,113,0.7,1.1,84,0.00,,,0.00,WUHU216HW,2013-06-17 11:11:00,
2013-06-17 04:16:00,52.2,47.5,30.00,East,90,1.1,1.1,84,0.00,,,0.00,WUHU216HW,2013-06-17 11:16:00,
2013-06-17 04:21:00,52.2,47.5,30.00,NE,45,1.1,1.1,84,0.00,,,0.00,WUHU216HW,2013-06-17 11:21:00,
2013-06-17 04:26:00,52.0,47.4,30.00,ENE,68,0.7,1.1,84,0.00,,,0.00,WUHU216HW,2013-06-17 11:26:00,
2013-06-17 04:31:00,52.0,47.4,30.00,ENE,68,0.0,1.1,84,0.00,,,0.00,WUHU216HW,2013-06-17 11:31:00,
2013-06-17 04:36:00,51.8,47.2,30.00,ENE,68,0.0,1.1,84,0.00,,,0.00,WUHU216HW,2013-06-17 11:36:00,
2013-06-17 04:41:00,51.8,47.2,30.00,ENE,68,0.0,0.4,84,0.00,,,0.00,WUHU216HW,2013-06-17 11:41:00,
2013-06-17 04:46:00,51.7,47.0,30.00,NNE,23,0.4,1.1,84,0.00,,,0.00,WUHU216HW,2013-06-17 11:46:00,
2013-06-17 04:51:00,51.7,47.3,30.00,NE,45,0.2,1.1,85,0.00,,,0.00,WUHU216HW,2013-06-17 11:51:00,
2013-06-17 04:56:00,51.5,47.1,30.00,ENE,68,1.1,1.1,85,0.00,,,0.00,WUHU216HW,2013-06-17 11:56:00,
2013-06-17 05:01:00,51.5,47.1,30.00,NNW,338,0.0,1.6,85,0.00,,,0.00,WUHU216HW,2013-06-17 12:01:00,
2013-06-17 05:06:00,51.5,47.1,30.00,NNW,338,0.0,1.6,85,0.00,,,0.00,WUHU216HW,2013-06-17 12:06:00,
2013-06-17 05:11:00,51.5,47.1,30.00,SE,135,0.4,0.4,85,0.00,,,0.00,WUHU216HW,2013-06-17 12:11:00,
2013-06-17 05:16:00,51.5,47.1,30.00,East,90,0.7,1.3,85,0.00,,,0.00,WUHU216HW,2013-06-17 12:16:00,
2013-06-17 05:21:00,51.5,47.3,30.00,ENE,68,0.4,2.5,86,0.00,,,0.00,WUHU216HW,2013-06-17 12:21:00,
2013-06-17 05:26:00,51.3,47.2,30.00,NE,45,0.0,2.5,86,0.00,,,0.00,WUHU216HW,2013-06-17 12:26:00,
2013-06-17 05:31:00,51.3,47.2,30.00,NNE,23,0.9,1.1,86,0.00,,,0.00,WUHU216HW,2013-06-17 12:31:00,
2013-06-17 05:36:00,51.1,47.0,30.00,NE,45,1.1,1.8,86,0.00,,,0.00,WUHU216HW,2013-06-17 12:36:00,
2013-06-17 05:41:00,51.1,47.0,30.00,ENE,68,1.1,1.8,86,0.00,,,0.00,WUHU216HW,2013-06-17 12:41:00,
2013-06-17 05:46:00,51.1,47.0,30.00,ENE,68,1.3,2.0,86,0.00,,,0.00,WUHU216HW,2013-06-17 12:46:00,
2013-06-17 05:51:00,51.1,47.0,30.01,NE,45,1.8,2.9,86,0.00,,,0.00,WUHU216HW,2013-06-17 12:51:00,
2013-06-17 05:56:00,51.1,47.4,30.01,East,90,1.8,2.9,87,0.00,,,0.00,WUHU216HW,2013-06-17 12:56:00,
2013-06-17 06:01:00,51.1,47.4,30.01,North,0,0.7,2.9,87,0.00,,,0.00,WUHU216HW,2013-06-17 13:01:00,
2013-06-17 06:06:00,51.1,47.4,30.01,East,90,1.1,2.5,87,0.00,,,0.00,WUHU216HW,2013-06-17 13:06:00,
2013-06-17 06:11:00,51.1,47.4,30.01,ESE,113,0.0,1.8,87,0.00,,,0.00,WUHU216HW,2013-06-17 13:11:00,
2013-06-17 06:16:00,51.1,47.4,30.02,ENE,68,1.1,1.1,87,0.00,,,0.00,WUHU216HW,2013-06-17 13:16:00,
2013-06-17 06:21:00,51.3,47.5,30.02,ENE,68,1.6,1.6,87,0.00,,,0.00,WUHU216HW,2013-06-17 13:21:00,
2013-06-17 06:26:00,51.3,47.8,30.02,NE,45,2.0,2.2,88,0.00,,,0.00,WUHU216HW,2013-06-17 13:26:00,
2013-06-17 06:31:00,51.3,47.8,30.01,ENE,68,0.2,2.5,88,0.00,,,0.00,WUHU216HW,2013-06-17 13:31:00,
2013-06-17 06:36:00,51.5,48.3,30.02,ENE,68,1.1,2.5,89,0.00,,,0.00,WUHU216HW,2013-06-17 13:36:00,
2013-06-17 06:41:00,51.7,48.2,30.02,ESE,113,1.3,2.2,88,0.00,,,0.00,WUHU216HW,2013-06-17 13:41:00,
2013-06-17 06:46:00,51.8,48.7,30.02,North,0,0.0,1.3,89,0.00,,,0.00,WUHU216HW,2013-06-17 13:46:00,
2013-06-17 06:51:00,52.2,48.7,30.02,NW,315,0.4,1.1,88,0.00,,,0.00,WUHU216HW,2013-06-17 13:51:00,
2013-06-17 06:56:00,52.2,48.7,30.02,NW,315,0.0,0.4,88,0.00,,,0.00,WUHU216HW,2013-06-17 13:56:00,
2013-06-17 07:01:00,52.7,49.2,30.02,North,0,0.4,0.4,88,0.00,,,0.00,WUHU216HW,2013-06-17 14:01:00,
2013-06-17 07:06:00,52.9,49.4,30.02,NNE,23,0.9,1.8,88,0.00,,,0.00,WUHU216HW,2013-06-17 14:06:00,
2013-06-17 07:11:00,53.3,49.8,30.02,NNE,23,0.9,1.8,88,0.00,,,0.00,WUHU216HW,2013-06-17 14:11:00,
2013-06-17 07:16:00,53.6,49.9,30.02,East,90,1.3,2.2,87,0.00,,,0.00,WUHU216HW,2013-06-17 14:16:00,
2013-06-17 07:21:00,53.8,49.7,30.02,ENE,68,2.2,2.5,86,0.00,,,0.00,WUHU216HW,2013-06-17 14:21:00,
2013-06-17 07:26:00,54.2,50.0,30.02,NNE,23,1.1,2.5,86,0.00,,,0.00,WUHU216HW,2013-06-17 14:26:00,
2013-06-17 07:31:00,54.4,50.2,30.02,NNE,23,2.9,2.9,86,0.00,,,0.00,WUHU216HW,2013-06-17 14:31:00,
2013-06-17 07:36:00,54.7,50.6,30.02,NNE,23,0.7,2.9,86,0.00,,,0.00,WUHU216HW,2013-06-17 14:36:00,
2013-06-17 07:41:00,55.1,50.6,30.02,NE,45,1.1,2.7,85,0.00,,,0.00,WUHU216HW,2013-06-17 14:41:00,
2013-06-17 07:46:00,55.6,51.1,30.02,North,0,0.2,1.3,85,0.00,,,0.00,WUHU216HW,2013-06-17 14:46:00,
2013-06-17 07:51:00,56.0,51.1,30.02,West,270,0.7,1.1,84,0.00,,,0.00,WUHU216HW,2013-06-17 14:51:00,
2013-06-17 07:56:00,56.5,51.7,30.02,ENE,68,0.7,1.1,84,0.00,,,0.00,WUHU216HW,2013-06-17 14:56:00,
2013-06-17 08:01:00,57.1,51.9,30.02,West,270,1.3,1.3,83,0.00,,,0.00,WUHU216HW,2013-06-17 15:01:00,
2013-06-17 08:06:00,57.6,52.1,30.02,SE,135,0.4,2.2,82,0.00,,,0.00,WUHU216HW,2013-06-17 15:06:00,
2013-06-17 08:11:00,58.3,52.6,30.02,ENE,68,1.1,2.2,81,0.00,,,0.00,WUHU216HW,2013-06-17 15:11:00,
2013-06-17 08:16:00,58.7,52.2,30.02,ENE,68,3.1,3.1,79,0.00,,,0.00,WUHU216HW,2013-06-17 15:16:00,
2013-06-17 08:21:00,59.0,52.6,30.02,ESE,113,1.8,3.1,79,0.00,,,0.00,WUHU216HW,2013-06-17 15:21:00,
2013-06-17 08:26:00,59.4,52.6,30.02,ENE,68,1.1,2.5,78,0.00,,,0.00,WUHU216HW,2013-06-17 15:26:00,
2013-06-17 08:31:00,59.8,52.2,30.02,North,0,1.1,4.3,76,0.00,,,0.00,WUHU216HW,2013-06-17 15:31:00,
2013-06-17 08:36:00,60.1,52.2,30.02,East,90,1.3,4.3,75,0.00,,,0.00,WUHU216HW,2013-06-17 15:36:00,
2013-06-17 08:41:00,60.5,52.6,30.02,NE,45,1.1,2.5,75,0.00,,,0.00,WUHU216HW,2013-06-17 15:41:00,
2013-06-17 08:46:00,61.0,52.8,30.02,ESE,113,2.9,2.9,74,0.00,,,0.00,WUHU216HW,2013-06-17 15:46:00,
2013-06-17 08:51:00,61.7,53.0,30.02,NE,45,1.1,2.9,73,0.00,,,0.00,WUHU216HW,2013-06-17 15:51:00,
2013-06-17 08:56:00,62.1,53.0,30.02,East,90,0.9,2.2,72,0.00,,,0.00,WUHU216HW,2013-06-17 15:56:00,
2013-06-17 09:01:00,62.6,53.5,30.02,SE,135,0.2,2.0,72,0.00,,,0.00,WUHU216HW,2013-06-17 16:01:00,
2013-06-17 09:06:00,63.4,53.8,30.02,SE,135,0.7,1.3,71,0.00,,,0.00,WUHU216HW,2013-06-17 16:06:00,
2013-06-17 09:11:00,64.1,53.3,30.02,ESE,113,0.4,2.7,68,0.00,,,0.00,WUHU216HW,2013-06-17 16:11:00,
2013-06-17 09:16:00,64.4,54.1,30.02,NNE,23,1.6,2.7,69,0.00,,,0.00,WUHU216HW,2013-06-17 16:16:00,
2013-06-17 09:21:00,65.3,54.6,30.02,SE,135,0.7,2.0,68,0.00,,,0.00,WUHU216HW,2013-06-17 16:21:00,
2013-06-17 09:26:00,65.9,54.2,30.02,WSW,248,0.4,1.1,66,0.00,,,0.00,WUHU216HW,2013-06-17 16:26:00,
2013-06-17 09:31:00,66.4,54.7,30.02,NNE,23,0.4,1.1,66,0.00,,,0.00,WUHU216HW,2013-06-17 16:31:00,
2013-06-17 09:36:00,67.0,54.8,30.02,North,0,0.4,2.5,65,0.00,,,0.00,WUHU216HW,2013-06-17 16:36:00,
2013-06-17 09:41:00,67.1,53.6,30.02,East,90,1.8,2.5,62,0.00,,,0.00,WUHU216HW,2013-06-17 16:41:00,
2013-06-17 09:46:00,67.5,54.0,30.02,East,90,1.1,2.7,62,0.00,,,0.00,WUHU216HW,2013-06-17 16:46:00,
2013-06-17 09:51:00,68.0,54.1,30.02,WSW,248,1.3,2.7,61,0.00,,,0.00,WUHU216HW,2013-06-17 16:51:00,
2013-06-17 09:56:00,68.6,52.2,30.02,NW,315,3.6,4.0,56,0.00,,,0.00,WUHU216HW,2013-06-17 16:56:00,
2013-06-17 10:01:00,69.3,52.9,30.01,NW,315,4.7,4.7,56,0.00,,,0.00,WUHU216HW,2013-06-17 17:01:00,
2013-06-17 10:06:00,69.8,52.9,30.01,WNW,293,1.6,4.7,55,0.00,,,0.00,WUHU216HW,2013-06-17 17:06:00,
2013-06-17 10:11:00,70.2,52.7,30.01,NW,315,2.9,4.5,54,0.00,,,0.00,WUHU216HW,2013-06-17 17:11:00,
2013-06-17 10:16:00,70.6,53.1,30.01,West,270,5.4,5.4,54,0.00,,,0.00,WUHU216HW,2013-06-17 17:16:00,
2013-06-17 10:21:00,71.3,54.2,30.01,West,270,2.7,5.4,55,0.00,,,0.00,WUHU216HW,2013-06-17 17:21:00,
2013-06-17 10:26:00,71.6,53.0,30.01,WSW,248,4.0,4.5,52,0.00,,,0.00,WUHU216HW,2013-06-17 17:26:00,
2013-06-17 10:31:00,72.0,53.4,30.01,WSW,248,1.8,4.5,52,0.00,,,0.00,WUHU216HW,2013-06-17 17:31:00,
2013-06-17 10:36:00,72.4,52.1,30.01,WNW,293,3.8,6.9,49,0.00,,,0.00,WUHU216HW,2013-06-17 17:36:00,
2013-06-17 10:41:00,72.7,53.5,30.00,NNW,338,2.0,6.9,51,0.00,,,0.00,WUHU216HW,2013-06-17 17:41:00,
2013-06-17 10:46:00,73.4,54.2,30.01,West,270,5.4,5.4,51,0.00,,,0.00,WUHU216HW,2013-06-17 17:46:00,
2013-06-17 10:51:00,73.8,53.4,30.01,WSW,248,4.3,7.2,49,0.00,,,0.00,WUHU216HW,2013-06-17 17:51:00,
2013-06-17 10:56:00,73.6,52.7,30.01,WNW,293,0.9,7.2,48,0.00,,,0.00,WUHU216HW,2013-06-17 17:56:00,
2013-06-17 11:01:00,74.0,53.6,30.01,West,270,1.8,6.9,49,0.00,,,0.00,WUHU216HW,2013-06-17 18:01:00,
2013-06-17 11:06:00,74.3,53.4,30.01,West,270,7.6,7.6,48,0.00,,,0.00,WUHU216HW,2013-06-17 18:06:00,
2013-06-17 11:11:00,74.9,53.3,30.01,SW,225,5.1,7.6,47,0.00,,,0.00,WUHU216HW,2013-06-17 18:11:00,
2013-06-17 11:16:00,74.7,53.1,30.01,West,270,5.1,7.6,47,0.00,,,0.00,WUHU216HW,2013-06-17 18:16:00,
2013-06-17 11:21:00,74.7,53.7,30.01,NW,315,3.6,7.6,48,0.00,,,0.00,WUHU216HW,2013-06-17 18:21:00,
2013-06-17 11:26:00,74.9,52.7,30.02,West,270,4.0,5.4,46,0.00,,,0.00,WUHU216HW,2013-06-17 18:26:00,
2013-06-17 11:31:00,75.1,53.5,30.01,WNW,293,4.0,6.5,47,0.00,,,0.00,WUHU216HW,2013-06-17 18:31:00,
2013-06-17 11:36:00,75.2,53.7,30.02,WSW,248,3.8,6.5,47,0.00,,,0.00,WUHU216HW,2013-06-17 18:36:00,
2013-06-17 11:41:00,75.1,54.0,30.02,WNW,293,3.1,6.3,48,0.00,,,0.00,WUHU216HW,2013-06-17 18:41:00,
2013-06-17 11:46:00,75.1,53.5,30.02,WNW,293,8.5,8.5,47,0.00,,,0.00,WUHU216HW,2013-06-17 18:46:00,
2013-06-17 11:51:00,75.1,54.0,30.02,WNW,293,2.5,8.5,48,0.00,,,0.00,WUHU216HW,2013-06-17 18:51:00,
2013-06-17 11:56:00,75.4,53.7,30.02,West,270,5.8,9.8,47,0.00,,,0.00,WUHU216HW,2013-06-17 18:56:00,
2013-06-17 12:01:00,75.4,54.4,30.02,WSW,248,5.1,9.8,48,0.00,,,0.00,WUHU216HW,2013-06-17 19:01:00,
2013-06-17 12:06:00,75.2,54.8,30.02,WNW,293,4.0,9.2,49,0.00,,,0.00,WUHU216HW,2013-06-17 19:06:00,
2013-06-17 12:11:00,75.2,54.2,30.02,SW,225,7.6,7.8,48,0.00,,,0.00,WUHU216HW,2013-06-17 19:11:00,
2013-06-17 12:16:00,75.4,55.0,30.02,NNW,338,2.7,7.8,49,0.00,,,0.00,WUHU216HW,2013-06-17 19:16:00,
2013-06-17 12:21:00,75.6,54.5,30.02,West,270,6.5,7.8,48,0.00,,,0.00,WUHU216HW,2013-06-17 19:21:00,
2013-06-17 12:26:00,75.6,53.9,30.02,NW,315,8.9,8.9,47,0.00,,,0.00,WUHU216HW,2013-06-17 19:26:00,
2013-06-17 12:31:00,75.4,54.4,30.02,WSW,248,4.9,8.9,48,0.00,,,0.00,WUHU216HW,2013-06-17 19:31:00,
2013-06-17 12:36:00,75.6,54.5,30.02,WSW,248,10.3,10.3,48,0.00,,,0.00,WUHU216HW,2013-06-17 19:36:00,
2013-06-17 12:41:00,75.8,55.4,30.02,West,270,6.7,10.3,49,0.00,,,0.00,WUHU216HW,2013-06-17 19:41:00,
2013-06-17 12:46:00,75.2,54.2,30.02,West,270,4.7,10.3,48,0.00,,,0.00,WUHU216HW,2013-06-17 19:46:00,
2013-06-17 12:51:00,74.9,55.6,30.02,SW,225,4.5,8.7,51,0.00,,,0.00,WUHU216HW,2013-06-17 19:51:00,
2013-06-17 12:56:00,74.5,54.7,30.02,SW,225,4.0,7.2,50,0.00,,,0.00,WUHU216HW,2013-06-17 19:56:00,
2013-06-17 13:01:00,74.9,55.1,30.02,WSW,248,7.4,7.4,50,0.00,,,0.00,WUHU216HW,2013-06-17 20:01:00,
2013-06-17 13:06:00,75.2,55.4,30.02,WSW,248,3.8,7.4,50,0.00,,,0.00,WUHU216HW,2013-06-17 20:06:00,
2013-06-17 13:11:00,75.6,55.8,30.02,SSW,203,5.1,7.4,50,0.00,,,0.00,WUHU216HW,2013-06-17 20:11:00,
2013-06-17 13:16:00,75.6,55.2,30.02,NNW,338,1.6,8.5,49,0.00,,,0.00,WUHU216HW,2013-06-17 20:16:00,
2013-06-17 13:21:00,76.0,55.4,30.02,SSW,203,2.5,9.2,49,0.00,,,0.00,WUHU216HW,2013-06-17 20:21:00,
2013-06-17 13:26:00,76.0,56.1,30.02,SW,225,7.4,9.2,50,0.00,,,0.00,WUHU216HW,2013-06-17 20:26:00,
2013-06-17 13:31:00,76.1,56.8,30.02,West,270,6.3,8.3,51,0.00,,,0.00,WUHU216HW,2013-06-17 20:31:00,
2013-06-17 13:36:00,76.3,56.4,30.02,West,270,3.6,7.4,50,0.00,,,0.00,WUHU216HW,2013-06-17 20:36:00,
2013-06-17 13:41:00,76.3,56.9,30.02,NW,315,6.0,8.5,51,0.00,,,0.00,WUHU216HW,2013-06-17 20:41:00,
2013-06-17 13:46:00,76.3,56.9,30.02,South,180,6.9,8.5,51,0.00,,,0.00,WUHU216HW,2013-06-17 20:46:00,
2013-06-17 13:51:00,76.1,56.8,30.02,NW,315,5.4,9.8,51,0.00,,,0.00,WUHU216HW,2013-06-17 20:51:00,
2013-06-17 13:56:00,76.3,56.9,30.02,WSW,248,3.1,9.8,51,0.00,,,0.00,WUHU216HW,2013-06-17 20:56:00,
2013-06-17 14:01:00,76.1,57.2,30.01,West,270,3.6,8.1,52,0.00,,,0.00,WUHU216HW,2013-06-17 21:01:00,
2013-06-17 14:06:00,76.3,56.9,30.01,West,270,10.1,10.1,51,0.00,,,0.00,WUHU216HW,2013-06-17 21:06:00,
2013-06-17 14:11:00,76.1,57.2,30.01,NW,315,4.9,10.1,52,0.00,,,0.00,WUHU216HW,2013-06-17 21:11:00,
2013-06-17 14:16:00,76.3,57.4,30.01,SSW,203,5.6,7.6,52,0.00,,,0.00,WUHU216HW,2013-06-17 21:16:00,
2013-06-17 14:21:00,76.1,57.2,30.01,South,180,2.0,6.3,52,0.00,,,0.00,WUHU216HW,2013-06-17 21:21:00,
2013-06-17 14:26:00,76.0,57.1,30.01,SSW,203,3.6,10.3,52,0.00,,,0.00,WUHU216HW,2013-06-17 21:26:00,
2013-06-17 14:31:00,75.4,57.2,30.01,West,270,4.0,10.3,53,0.00,,,0.00,WUHU216HW,2013-06-17 21:31:00,
2013-06-17 14:36:00,75.4,57.2,30.01,SSW,203,10.5,10.5,53,0.00,,,0.00,WUHU216HW,2013-06-17 21:36:00,
2013-06-17 14:41:00,74.9,57.1,30.01,SSW,203,5.8,10.5,54,0.00,,,0.00,WUHU216HW,2013-06-17 21:41:00,
2013-06-17 14:46:00,74.7,56.9,30.02,WSW,248,3.8,9.2,54,0.00,,,0.00,WUHU216HW,2013-06-17 21:46:00,
2013-06-17 14:51:00,74.9,57.1,30.02,SW,225,6.9,9.4,54,0.00,,,0.00,WUHU216HW,2013-06-17 21:51:00,
2013-06-17 14:56:00,74.9,57.6,30.01,SW,225,5.1,9.4,55,0.00,,,0.00,WUHU216HW,2013-06-17 21:56:00,
2013-06-17 15:01:00,75.6,57.2,30.01,SW,225,5.6,9.8,53,0.00,,,0.00,WUHU216HW,2013-06-17 22:01:00,
2013-06-17 15:06:00,75.2,57.0,30.01,South,180,8.9,9.8,53,0.00,,,0.00,WUHU216HW,2013-06-17 22:06:00,
2013-06-17 15:11:00,75.2,57.0,30.01,SSE,158,5.8,8.9,53,0.00,,,0.00,WUHU216HW,2013-06-17 22:11:00,
2013-06-17 15:16:00,75.2,57.0,30.01,WNW,293,6.7,6.7,53,0.00,,,0.00,WUHU216HW,2013-06-17 22:16:00,
2013-06-17 15:21:00,75.1,56.8,30.01,WSW,248,5.6,8.1,53,0.00,,,0.00,WUHU216HW,2013-06-17 22:21:00,
2013-06-17 15:26:00,74.9,56.6,30.01,WSW,248,6.7,8.7,53,0.00,,,0.00,WUHU216HW,2013-06-17 22:26:00,
2013-06-17 15:31:00,75.2,57.0,30.01,WSW,248,7.6,10.5,53,0.00,,,0.00,WUHU216HW,2013-06-17 22:31:00,
2013-06-17 15:36:00,75.6,56.8,30.01,WSW,248,8.1,10.5,52,0.00,,,0.00,WUHU216HW,2013-06-17 22:36:00,
2013-06-17 15:41:00,75.6,56.8,30.01,South,180,4.7,9.8,52,0.00,,,0.00,WUHU216HW,2013-06-17 22:41:00,
2013-06-17 15:46:00,75.4,56.6,30.01,WSW,248,5.4,8.5,52,0.00,,,0.00,WUHU216HW,2013-06-17 22:46:00,
2013-06-17 15:51:00,75.2,57.0,30.01,West,270,8.5,8.5,53,0.00,,,0.00,WUHU216HW,2013-06-17 22:51:00,
2013-06-17 15:56:00,75.4,56.6,30.00,WSW,248,4.0,8.5,52,0.00,,,0.00,WUHU216HW,2013-06-17 22:56:00,
2013-06-17 16:01:00,75.1,57.2,30.00,West,270,3.4,8.5,54,0.00,,,0.00,WUHU216HW,2013-06-17 23:01:00,
2013-06-17 16:06:00,74.9,57.1,30.00,North,0,3.4,8.5,54,0.00,,,0.00,WUHU216HW,2013-06-17 23:06:00,
2013-06-17 16:11:00,74.9,57.1,30.00,West,270,6.5,7.2,54,0.00,,,0.00,WUHU216HW,2013-06-17 23:11:00,
2013-06-17 16:16:00,74.5,57.2,30.00,West,270,5.1,8.5,55,0.00,,,0.00,WUHU216HW,2013-06-17 23:16:00,
2013-06-17 16:21:00,74.2,56.9,30.00,WNW,293,7.4,8.5,55,0.00,,,0.00,WUHU216HW,2013-06-17 23:21:00,
2013-06-17 16:26:00,74.2,56.9,30.00,West,270,8.9,8.9,55,0.00,,,0.00,WUHU216HW,2013-06-17 23:26:00,
2013-06-17 16:31:00,73.8,56.5,30.00,WSW,248,11.9,12.8,55,0.00,,,0.00,WUHU216HW,2013-06-17 23:31:00,
2013-06-17 16:36:00,74.0,57.3,30.00,West,270,11.4,12.8,56,0.00,,,0.00,WUHU216HW,2013-06-17 23:36:00,
2013-06-17 16:41:00,73.8,57.1,30.00,South,180,7.8,12.5,56,0.00,,,0.00,WUHU216HW,2013-06-17 23:41:00,
2013-06-17 16:46:00,73.8,57.1,30.00,South,180,7.2,12.5,56,0.00,,,0.00,WUHU216HW,2013-06-17 23:46:00,
2013-06-17 16:51:00,73.4,56.7,29.99,SW,225,4.9,8.3,56,0.00,,,0.00,WUHU216HW,2013-06-17 23:51:00,
2013-06-17 16:56:00,73.4,56.7,30.00,West,270,4.3,7.6,56,0.00,,,0.00,WUHU216HW,2013-06-17 23:56:00,
2013-06-17 17:01:00,73.6,56.9,29.99,WSW,248,5.8,7.6,56,0.00,,,0.00,WUHU216HW,2013-06-18 00:01:00,
2013-06-17 17:06:00,73.4,57.2,29.99,WSW,248,4.9,10.5,57,0.00,,,0.00,WUHU216HW,2013-06-18 00:06:00,
2013-06-17 17:11:00,73.4,57.2,29.99,West,270,5.6,10.5,57,0.00,,,0.00,WUHU216HW,2013-06-18 00:11:00,
2013-06-17 17:16:00,73.6,57.3,29.99,SW,225,6.5,9.8,57,0.00,,,0.00,WUHU216HW,2013-06-18 00:16:00,
2013-06-17 17:21:00,73.3,57.5,29.99,WSW,248,7.8,9.8,58,0.00,,,0.00,WUHU216HW,2013-06-18 00:21:00,
2013-06-17 17:26:00,72.7,57.1,29.99,WSW,248,8.7,11.0,58,0.00,,,0.00,WUHU216HW,2013-06-18 00:26:00,
2013-06-17 17:31:00,72.5,57.3,29.99,West,270,6.9,11.0,59,0.00,,,0.00,WUHU216HW,2013-06-18 00:31:00,
2013-06-17 17:36:00,72.4,57.3,29.99,West,270,8.5,9.6,59,0.00,,,0.00,WUHU216HW,2013-06-18 00:36:00,
2013-06-17 17:41:00,72.0,57.4,29.99,SW,225,4.9,9.6,60,0.00,,,0.00,WUHU216HW,2013-06-18 00:41:00,
2013-06-17 17:46:00,70.9,56.9,29.99,West,270,7.6,7.6,61,0.00,,,0.00,WUHU216HW,2013-06-18 00:46:00,
2013-06-17 17:51:00,70.4,56.8,29.99,SSW,203,6.5,7.6,62,0.00,,,0.00,WUHU216HW,2013-06-18 00:51:00,
2013-06-17 17:56:00,70.2,56.6,29.99,SW,225,5.4,7.6,62,0.00,,,0.00,WUHU216HW,2013-06-18 00:56:00,
2013-06-17 18:01:00,70.4,56.8,29.98,SW,225,6.0,7.2,62,0.00,,,0.00,WUHU216HW,2013-06-18 01:01:00,
2013-06-17 18:06:00,70.4,56.8,29.98,SSW,203,5.4,6.7,62,0.00,,,0.00,WUHU216HW,2013-06-18 01:06:00,
2013-06-17 18:11:00,70.2,56.6,29.98,West,270,9.2,9.4,62,0.00,,,0.00,WUHU216HW,2013-06-18 01:11:00,
2013-06-17 18:16:00,70.2,56.2,29.98,WSW,248,5.6,9.4,61,0.00,,,0.00,WUHU216HW,2013-06-18 01:16:00,
2013-06-17 18:21:00,70.0,56.4,29.98,WSW,248,5.1,6.7,62,0.00,,,0.00,WUHU216HW,2013-06-18 01:21:00,
2013-06-17 18:26:00,69.7,56.1,29.98,West,270,4.9,8.1,62,0.00,,,0.00,WUHU216HW,2013-06-18 01:26:00,
2013-06-17 18:31:00,69.3,56.2,29.98,South,180,4.7,8.1,63,0.00,,,0.00,WUHU216HW,2013-06-18 01:31:00,
2013-06-17 18:36:00,69.1,56.0,29.98,SW,225,3.6,7.4,63,0.00,,,0.00,WUHU216HW,2013-06-18 01:36:00,
2013-06-17 18:41:00,68.9,56.3,29.98,SSE,158,4.0,6.3,64,0.00,,,0.00,WUHU216HW,2013-06-18 01:41:00,
2013-06-17 18:46:00,68.8,56.1,29.98,SSW,203,5.1,7.4,64,0.00,,,0.00,WUHU216HW,2013-06-18 01:46:00,
2013-06-17 18:51:00,68.4,55.7,29.98,WSW,248,4.0,7.4,64,0.00,,,0.00,WUHU216HW,2013-06-18 01:51:00,
2013-06-17 18:56:00,67.9,55.6,29.98,West,270,5.1,5.1,65,0.00,,,0.00,WUHU216HW,2013-06-18 01:56:00,
2013-06-17 19:01:00,67.5,55.7,29.98,WSW,248,6.3,6.3,66,0.00,,,0.00,WUHU216HW,2013-06-18 02:01:00,
2013-06-17 19:06:00,67.1,55.4,29.98,West,270,3.6,6.3,66,0.00,,,0.00,WUHU216HW,2013-06-18 02:06:00,
2013-06-17 19:11:00,67.1,55.4,29.98,SW,225,3.8,6.9,66,0.00,,,0.00,WUHU216HW,2013-06-18 02:11:00,
2013-06-17 19:16:00,66.8,55.0,29.98,WSW,248,3.6,6.9,66,0.00,,,0.00,WUHU216HW,2013-06-18 02:16:00,
2013-06-17 19:21:00,66.8,55.0,29.98,West,270,3.6,3.8,66,0.00,,,0.00,WUHU216HW,2013-06-18 02:21:00,
2013-06-17 19:26:00,66.6,55.3,29.97,West,270,2.0,3.8,67,0.00,,,0.00,WUHU216HW,2013-06-18 02:26:00,
2013-06-17 19:31:00,66.2,54.9,29.98,WNW,293,3.6,6.7,67,0.00,,,0.00,WUHU216HW,2013-06-18 02:31:00,
2013-06-17 19:36:00,65.9,55.0,29.98,WNW,293,1.1,6.7,68,0.00,,,0.00,WUHU216HW,2013-06-18 02:36:00,
2013-06-17 19:41:00,65.5,54.6,29.98,SSW,203,2.5,6.3,68,0.00,,,0.00,WUHU216HW,2013-06-18 02:41:00,
2013-06-17 19:46:00,65.2,54.7,29.98,WNW,293,2.0,6.3,69,0.00,,,0.00,WUHU216HW,2013-06-18 02:46:00,
2013-06-17 19:51:00,64.8,54.9,29.98,SSE,158,2.2,3.8,70,0.00,,,0.00,WUHU216HW,2013-06-18 02:51:00,
2013-06-17 19:56:00,64.4,54.5,29.98,SSW,203,4.9,4.9,70,0.00,,,0.00,WUHU216HW,2013-06-18 02:56:00,
2013-06-17 20:01:00,63.9,54.4,29.98,SW,225,4.0,5.8,71,0.00,,,0.00,WUHU216HW,2013-06-18 03:01:00,
2013-06-17 20:06:00,63.4,54.2,29.98,SSE,158,2.5,6.0,72,0.00,,,0.00,WUHU216HW,2013-06-18 03:06:00,
2013-06-17 20:11:00,63.0,54.2,29.98,SSW,203,4.0,6.0,73,0.00,,,0.00,WUHU216HW,2013-06-18 03:11:00,
2013-06-17 20:16:00,62.5,53.6,29.98,SW,225,3.8,4.9,73,0.00,,,0.00,WUHU216HW,2013-06-18 03:16:00,
2013-06-17 20:21:00,61.9,53.6,29.98,South,180,1.8,5.4,74,0.00,,,0.00,WUHU216HW,2013-06-18 03:21:00,
2013-06-17 20:26:00,61.6,53.2,29.98,SW,225,4.5,5.4,74,0.00,,,0.00,WUHU216HW,2013-06-18 03:26:00,
2013-06-17 20:31:00,61.2,53.3,29.98,SSE,158,2.9,4.5,75,0.00,,,0.00,WUHU216HW,2013-06-18 03:31:00,
2013-06-17 20:36:00,61.2,53.3,29.98,SSW,203,4.7,4.7,75,0.00,,,0.00,WUHU216HW,2013-06-18 03:36:00,
2013-06-17 20:41:00,60.8,53.3,29.98,SSW,203,1.1,4.7,76,0.00,,,0.00,WUHU216HW,2013-06-18 03:41:00,
2013-06-17 20:46:00,60.3,53.1,29.98,South,180,6.3,6.3,77,0.00,,,0.00,WUHU216HW,2013-06-18 03:46:00,
2013-06-17 20:51:00,59.9,53.1,29.98,SSW,203,6.0,6.3,78,0.00,,,0.00,WUHU216HW,2013-06-18 03:51:00,
2013-06-17 20:56:00,59.8,52.6,29.98,SSW,203,0.7,6.0,77,0.00,,,0.00,WUHU216HW,2013-06-18 03:56:00,
2013-06-17 21:01:00,59.6,52.7,29.98,ESE,113,1.6,4.3,78,0.00,,,0.00,WUHU216HW,2013-06-18 04:01:00,
2013-06-17 21:06:00,59.4,52.9,29.98,SSE,158,3.8,5.8,79,0.00,,,0.00,WUHU216HW,2013-06-18 04:06:00,
2013-06-17 21:11:00,59.4,52.9,29.98,SE,135,1.8,4.0,79,0.00,,,0.00,WUHU216HW,2013-06-18 04:11:00,
2013-06-17 21:16:00,59.2,52.7,29.98,SE,135,3.4,4.0,79,0.00,,,0.00,WUHU216HW,2013-06-18 04:16:00,
2013-06-17 21:21:00,59.0,52.6,29.98,SE,135,3.4,3.4,79,0.00,,,0.00,WUHU216HW,2013-06-18 04:21:00,
2013-06-17 21:26:00,58.9,52.4,29.98,SSE,158,1.1,3.8,79,0.00,,,0.00,WUHU216HW,2013-06-18 04:26:00,
2013-06-17 21:31:00,58.7,52.2,29.98,South,180,0.7,3.8,79,0.00,,,0.00,WUHU216HW,2013-06-18 04:31:00,
2013-06-17 21:36:00,58.7,52.2,29.99,South,180,3.1,3.1,79,0.00,,,0.00,WUHU216HW,2013-06-18 04:36:00,
2013-06-17 21:41:00,58.5,52.0,29.99,WSW,248,0.9,3.1,79,0.00,,,0.00,WUHU216HW,2013-06-18 04:41:00,
2013-06-17 21:46:00,58.5,52.4,29.99,WNW,293,0.0,2.2,80,0.00,,,0.00,WUHU216HW,2013-06-18 04:46:00,
2013-06-17 21:51:00,58.5,52.4,29.99,West,270,1.1,1.8,80,0.00,,,0.00,WUHU216HW,2013-06-18 04:51:00,
2013-06-17 21:56:00,58.5,52.4,29.99,West,270,3.1,3.4,80,0.00,,,0.00,WUHU216HW,2013-06-18 04:56:00,
2013-06-17 22:01:00,58.5,52.4,29.99,SW,225,0.4,3.4,80,0.00,,,0.00,WUHU216HW,2013-06-18 05:01:00,
2013-06-17 22:06:00,58.5,52.4,29.99,SW,225,0.2,3.1,80,0.00,,,0.00,WUHU216HW,2013-06-18 05:06:00,
2013-06-17 22:11:00,58.5,52.0,29.99,SW,225,0.0,1.8,79,0.00,,,0.00,WUHU216HW,2013-06-18 05:11:00,
2013-06-17 22:16:00,58.5,52.0,29.99,SSW,203,1.6,1.6,79,0.00,,,0.00,WUHU216HW,2013-06-18 05:16:00,
2013-06-17 22:21:00,58.5,52.4,29.99,South,180,1.8,1.8,80,0.00,,,0.00,WUHU216HW,2013-06-18 05:21:00,
2013-06-17 22:26:00,58.5,52.8,29.99,South,180,1.3,4.7,81,0.00,,,0.00,WUHU216HW,2013-06-18 05:26:00,
2013-06-17 22:31:00,58.3,52.6,29.99,SSE,158,1.8,4.7,81,0.00,,,0.00,WUHU216HW,2013-06-18 05:31:00,
2013-06-17 22:36:00,58.3,52.6,29.99,SW,225,0.9,2.2,81,0.00,,,0.00,WUHU216HW,2013-06-18 05:36:00,
2013-06-17 22:41:00,58.3,52.6,29.99,SW,225,0.4,2.2,81,0.00,,,0.00,WUHU216HW,2013-06-18 05:41:00,
2013-06-17 22:46:00,58.3,52.6,29.98,ESE,113,0.4,2.0,81,0.00,,,0.00,WUHU216HW,2013-06-18 05:46:00,
2013-06-17 22:51:00,58.3,52.6,29.98,ESE,113,2.2,2.2,81,0.00,,,0.00,WUHU216HW,2013-06-18 05:51:00,
2013-06-17 22:56:00,58.1,52.4,29.98,East,90,0.4,2.2,81,0.00,,,0.00,WUHU216HW,2013-06-18 05:56:00,
2013-06-17 23:01:00,58.1,52.4,29.98,ESE,113,0.7,1.8,81,0.00,,,0.00,WUHU216HW,2013-06-18 06:01:00,
2013-06-17 23:06:00,58.1,52.4,29.99,East,90,0.0,1.8,81,0.00,,,0.00,WUHU216HW,2013-06-18 06:06:00,
2013-06-17 23:11:00,58.0,52.2,29.98,ESE,113,0.4,0.7,81,0.00,,,0.00,WUHU216HW,2013-06-18 06:11:00,
2013-06-17 23:16:00,58.0,52.2,29.98,ESE,113,0.0,0.7,81,0.00,,,0.00,WUHU216HW,2013-06-18 06:16:00,
2013-06-17 23:21:00,58.0,52.2,29.98,North,0,0.4,1.1,81,0.00,,,0.00,WUHU216HW,2013-06-18 06:21:00,
2013-06-17 23:26:00,57.8,52.0,29.98,NNE,23,0.0,1.1,81,0.00,,,0.00,WUHU216HW,2013-06-18 06:26:00,
2013-06-17 23:31:00,57.6,51.9,29.98,NNE,23,0.4,0.9,81,0.00,,,0.00,WUHU216HW,2013-06-18 06:31:00,
2013-06-17 23:36:00,57.6,51.9,29.98,North,0,0.7,0.9,81,0.00,,,0.00,WUHU216HW,2013-06-18 06:36:00,
2013-06-17 23:41:00,57.4,51.7,29.97,NE,45,0.7,0.7,81,0.00,,,0.00,WUHU216HW,2013-06-18 06:41:00,
2013-06-17 23:46:00,57.2,51.5,29.97,NE,45,0.2,1.1,81,0.00,,,0.00,WUHU216HW,2013-06-18 06:46:00,
2013-06-17 23:51:00,57.2,51.5,29.97,NNE,23,0.7,1.1,81,0.00,,,0.00,WUHU216HW,2013-06-18 06:51:00,
2013-06-17 23:56:00,57.1,51.6,29.97,NE,45,0.7,1.6,82,0.00,,,0.00,WUHU216HW,2013-06-18 06:56:00,